Regional Weather Roundup
Issued by NWS

Home | Current Version | Previous Version | Text Only | Print | Product List | Glossary Off
Versions: 1 2 3 4 5 6 7 8 9 10 11 12 13 14 15 16 17 18 19 20 21 22 23 24 25 26 27 28 29 30 31 32 33 34 35 36 37 38 39 40 41 42 43 44 45 46 47 48 49 50

000
ASUS43 KLOT 101408
RWRIL

ILLINOIS REGIONAL WEATHER ROUNDUP
NATIONAL WEATHER SERVICE CHICAGO/ROMEOVILLE IL
800 AM CST SAT DEC 10 2016

NOTE: "FAIR" INDICATES FEW OR NO CLOUDS BELOW 12,000 FEET WITH NO
SIGNIFICANT WEATHER AND/OR OBSTRUCTIONS TO VISIBILITY.

* THESE STATIONS ARE NOT UNDER NWS QUALITY CONTROL. THEY ALSO MAY NOT
  REPORT WEATHER SUCH AS PRECIPITATION OR FOG.

ILZ001-002-007-009-015-016-024-101500-
NORTHWEST ILLINOIS

CITY           SKY/WX    TMP DP  RH WIND       PRES   REMARKS
MOLINE         CLOUDY    22  14  71 SW5       30.53S WCI  16
STERLING*      CLOUDY    20  16  84 W5        30.53S WCI  13
SAVANNA*       CLOUDY    20  15  81 W5        30.52F WCI  13
$$

ILZ003-004-008-010-011-017-018-101500-
NORTH CENTRAL ILLINOIS

CITY           SKY/WX    TMP DP  RH WIND       PRES   REMARKS
ROCKFORD       CLOUDY    18  13  80 SW6       30.53R WCI  10
FREEPORT*      CLOUDY    17  14  88 SW3       30.51F
ROCHELLE*      CLOUDY    15  13  90 SW5       30.53R WCI   8
DE KALB*       CLOUDY    17  14  86 W8        30.52R WCI   7
$$

ILZ005-006-012>014-019>023-101500-
NORTHEAST ILLINOIS

CITY           SKY/WX    TMP DP  RH WIND       PRES   REMARKS
CHICAGO-OHARE  MOCLDY    18  12  77 W10       30.51R WCI   6
CHICAGO-MIDWAY MOCLDY    20  11  68 W9        30.52R WCI   9
AURORA         CLOUDY    19  14  81 SW6       30.53R WCI  11
LANSING*       CLOUDY    20  17  86 W7        30.53R WCI  11
JOLIET*        CLOUDY    21  16  81 W5        30.54R WCI  15
WAUKEGAN       PTCLDY    16  12  84 CALM      30.49R
DUPAGE AIRPORT CLOUDY    18  12  77 W8        30.52R WCI   8
KANKAKEE*      CLOUDY    22  16  79 W8        30.55R WCI  12
WHEELING       CLOUDY    18  12  77 W6        30.52R WCI  10
MORRIS*        CLOUDY    19  15  83 CALM      30.54R
ROMEOVILLE*    CLOUDY    19  17  93 W7        30.54R WCI  10
NORTHERLY ISL    N/A     20  13  74 W6          N/A  WCI  12
$$

LMZ740>746-101500-
SOUTHERN LAKE MICHIGAN

STATION/POSITION SKY/WX   TEMP    WIND        PRES    VSBY  WAVE
                          AIR SEA DIR/SP/G                  HT/PER
                          (F)     (DEG/KT/KT) (MB)    (MI)  (FT/S)
BURNHAM HARBOR             20     270/  7/  9   N/A
CALUMET HARBOR             20     240/  8/ 11 1032.6R
BURNS HARBOR               22     230/ 11/ 14 1033.5R
$$

ILZ025>027-034>036-040-047-049-050-058-095>099-101500-
WEST-CENTRAL ILLINOIS

CITY           SKY/WX    TMP DP  RH WIND       PRES   REMARKS
QUINCY         CLOUDY    24  14  65 SE6       30.52F WCI  17
GALESBURG*     CLOUDY    21  17  84 CALM      30.53F
MACOMB*        CLOUDY    23  18  81 S3        30.56F
JACKSONVILLE*  CLOUDY    23  16  74 CALM      30.57R
PITTSFIELD*    CLOUDY    24  20  82 SE3       30.55F
$$

ILZ028>032-037-038-041>044-048-051>054-059>061-101500-
CENTRAL ILLINOIS

CITY           SKY/WX    TMP DP  RH WIND       PRES   REMARKS
PONTIAC        CLOUDY    22  17  78 W6        30.55S WCI  15
BLOOMINGTON    CLOUDY    21  16  81 MISG      30.54S
DECATUR        CLOUDY    23  16  74 SW3       30.56S
PEORIA         CLOUDY    22  15  75 SW7       30.56R WCI  13
LACON*         CLOUDY    22  14  72 W3        30.54S
LINCOLN*       CLOUDY    24  17  75 CALM      30.57R
SPRINGFIELD    CLOUDY    24  16  71 W3        30.58R
TAYLORVILLE    MOCLDY    23  18  82 CALM      30.58R
$$

ILZ033-039-045-046-055>057-062-063-101500-
EAST-CENTRAL ILLINOIS

CITY           SKY/WX    TMP DP  RH WIND       PRES   REMARKS
CHAMPAIGN      CLOUDY    23  14  68 W7        30.55R WCI  15
RANTOUL*       CLOUDY    24  18  77 W6        30.54F WCI  17
MATTOON        CLOUDY    23  17  78 SW5       30.55S WCI  17
PARIS*         CLOUDY    23  18  82 W3        30.57S
$$

ILZ079-100>102-101500-
SOUTHWEST ILLINOIS

CITY           SKY/WX    TMP DP  RH WIND       PRES   REMARKS
ALTON          CLOUDY    25  18  74 SE6       30.58R WCI  18
BELLEVILLE     CLOUDY    25  21  83 S1        30.57S
CAHOKIA*       CLOUDY    26  18  71 SE5       30.58R WCI  20
SPARTA*        CLOUDY    25  19  77 S3        30.59R
$$

ILZ064>066-069>071-074>076-080>082-084>086-088>090-092>094-101500-
SOUTH-CENTRAL ILLINOIS

CITY           SKY/WX    TMP DP  RH WIND       PRES   REMARKS
CARBONDALE     CLOUDY    24  19  81 S3        30.60S
CAIRO*         CLEAR     19  17  93 CALM      30.61S
EFFINGHAM*     CLOUDY    25  20  81 S3        30.59S
MARION         MOCLDY    25  19  80 CALM      30.60S
CENTRALIA*     CLOUDY    26  22  85 CALM      30.57F
SALEM*         CLOUDY    26  19  77 CALM      30.57F
METROPOLIS*    PTCLDY    18  16  91 CALM      30.62S
$$

ILZ067-068-072-073-078-083-087-091-101500-
SOUTHEAST ILLINOIS

CITY           SKY/WX    TMP DP  RH WIND       PRES   REMARKS
LAWRENCEVILLE  CLOUDY    24  18  77 SW5       30.60R WCI  18
FLORA*         CLOUDY    26  20  79 S3        30.60S
FAIRFIELD*     CLOUDY    25  20  79 CALM      30.58F
HARRISBURG*    CLOUDY    25  21  85 CALM      30.61F
ROBINSON*      CLOUDY    23  18  80 SW3       30.60S
CARMI*         CLOUDY    25  20  83 CALM      30.60F
$$

ABBREVIATIONS USED IN REMARKS
   TC - TEMPERATURE IN CELSIUS
  WCI - WIND CHILL INDEX
   HX - HEAT INDEX
  VSB - VISIBILITY
$$





USA.gov is the U.S. government's official web portal to all federal, state and local government web resources and services.